Vertical_Velocity
-6 -2 -7 -4 -3 1 2 3 1 2 1 -2 -2 -1 -2 -1 -1 -0 14 1 5 5 2 4 2 1 3 1 1 -0 -5 -5 2 0 -0 2 2 1 2 2 -2 1 -1 -1 1
-4 -3 -5 -3 -3 -0 -4 1 -0 0 -1 -0 -0 2 -1 -0 -1 3 -5 5 3 5 4 3 -0 2 -2 0 -2 -5 2 3 1 -3 -0 -2 1 1 3 3 1 -2 -2 -1 -2
-3 0 -5 -5 -2 -0 1 0 -1 -0 1 1 -0 0 1 -4 -1 12 -3 4 1 3 4 0 3 -0 2 1 3 1 1 0 -0 -2 -0 1 1 -2 2 4 -0 -1 -1 -1 1
-2 -4 -3 -3 -4 -4 -4 -3 -1 -1 1 1 1 0 -1 -6 3 -2 6 3 1 3 2 1 1 0 2 1 1 -1 -1 0 3 -0 -2 0 2 3 3 2 -0 -1 -0 0 0
0 -4 2 -1 -4 -3 -3 -2 -1 2 1 0 2 5 -2 3 1 3 4 -2 3 3 2 3 5 3 4 5 3 1 1 1 -0 -1 -1 -1 1 2 -1 -1 -1 -2 -1 -0 1
2 -1 -0 2 0 -1 -1 -2 0 -3 -0 2 1 -0 -1 2 2 2 6 3 3 3 3 8 3 -0 1 0 -0 3 -0 1 -0 -1 -1 -1 -0 -1 -4 0 -1 -1 -1 -1 -1
-0 -2 -0 -2 -2 -2 -5 -2 -2 1 1 -2 2 -1 0 5 1 3 3 -0 1 -1 4 4 2 4 5 4 0 0 -1 2 1 1 0 -0 -1 2 -3 -1 -0 -1 -1 -2 -1
-3 -0 -2 1 1 -4 -0 -3 0 -2 3 3 3 2 2 5 0 2 3 3 2 4 3 3 2 -3 2 1 -3 -2 1 -3 1 -0 -1 -1 4 -4 -3 -2 -1 -2 -2 0 1
-3 -5 -1 0 1 -0 -1 -2 -2 -1 1 6 9 -1 3 0 3 3 2 2 1 2 3 4 2 -1 -1 1 1 -1 3 4 1 -1 -2 -1 -0 -1 -1 -1 -3 -3 -1 1 1
-4 -5 -4 -4 -3 -3 -2 -3 0 -4 9 -2 3 -0 -1 1 1 3 2 4 2 3 -1 1 -3 -1 0 -2 -2 4 7 3 0 -1 -1 1 2 0 -3 -3 -3 -1 -3 -2 0
-4 -4 -5 -3 -4 -2 -2 -3 -6 1 -4 3 -0 4 -1 -1 1 -1 2 2 1 2 1 -3 -2 2 10 3 -2 3 -1 -0 1 1 -0 -2 -3 -3 -3 -1 -0 -3 -1 -1 0
-1 -2 -3 -2 -1 0 -5 -0 -0 -2 3 1 0 0 4 3 4 -0 1 -2 1 3 -1 2 2 1 2 3 2 2 -1 2 1 -0 -2 -4 0 -4 -3 3 -1 -2 1 -1 1
-1 1 -2 1 1 0 -0 0 -0 -1 3 9 4 -3 7 -0 -1 4 5 3 3 4 3 3 3 0 0 2 0 0 2 1 2 -1 -2 -2 -1 -3 -1 0 -1 -1 -0 2 0
0 0 1 1 2 1 3 0 0 1 1 8 -1 7 2 -0 0 0 -1 2 -0 4 2 1 0 2 1 1 1 -1 2 -0 1 -1 -2 -2 -5 -3 -2 -1 2 2 0 1 1
-1 1 1 1 0 2 0 -0 2 -3 -4 6 -0 1 2 -1 4 3 3 4 8 8 4 4 -0 -1 0 1 0 2 2 2 1 -1 -2 -3 -8 9 -2 2 2 0 1 -1 -2
-1 -3 1 -0 -0 -1 -0 -0 4 -2 -5 0 4 2 1 -1 -2 4 2 0 1 -1 2 3 4 -0 1 1 2 1 1 1 1 -1 -8 1 -5 9 2 2 1 1 -1 -1 0
-2 -3 -4 1 -2 -1 1 2 2 -3 0 2 5 0 1 2 2 -2 1 2 3 -3 -1 -0 0 2 -2 -3 -2 -1 -1 -2 -3 -6 -0 2 -8 19 1 3 3 2 -3 1 3
-1 -2 -1 -3 -3 0 -1 4 1 0 -1 2 -3 3 0 3 -0 2 0 -3 -2 2 1 1 -4 -4 -0 0 2 1 1 -2 -3 -5 1 -2 -12 7 3 1 2 1 1 1 2
1 1 -1 -1 -3 -4 1 4 2 3 -0 -2 -4 -6 -0 0 6 -4 -0 -1 -1 -1 -3 -1 -1 -0 -1 -1 -0 2 -3 2 0 -1 -1 -3 3 2 3 4 0 2 1 0 4
1 -2 -0 -2 -0 -3 -1 -3 1 3 2 7 3 -3 -6 -8 2 3 4 2 -3 -2 -2 -0 -3 -1 -0 -2 -1 -2 2 -1 2 -2 -1 -0 2 2 6 1 2 1 -1 -2 -0
-1 -0 0 -1 0 -2 -4 -4 -3 -4 -1 3 4 7 6 2 -6 -2 -1 1 -1 -1 2 3 2 2 -1 3 2 2 3 1 -1 -2 1 3 3 4 3 2 1 1 1 1 -2
-0 -1 1 1 -4 1 1 -2 -6 -3 -3 -1 -1 1 5 5 4 2 -1 -4 -5 -2 -2 -1 -0 1 0 2 2 2 1 1 -4 -2 -2 -5 6 -3 -3 -3 1 1 1 1 -0
-2 2 1 1 1 1 -1 3 0 -3 -4 -4 -2 1 3 -2 1 4 5 3 3 -1 -2 -1 -5 -4 -5 -5 -4 -4 -2 -3 -3 -2 2 -11 8 -5 -1 -2 0 2 2 1 1
0 -1 -1 0 1 1 0 -1 -1 2 2 -2 -4 -4 -2 0 2 3 -1 -1 1 2 1 -1 -2 -3 -3 -3 -3 -4 -1 -2 -3 -1 2 6 1 -0 -2 -0 0 -0 -0 -1 -1
-1 1 -1 -1 -1 1 1 1 1 1 -1 -0 -0 -0 -2 -4 -3 -1 1 2 3 2 0 0 0 -0 -2 -2 0 -1 -0 -2 2 -4 -4 7 4 -12 -3 -1 0 2 2 1 1
-0 -5 1 2 1 -0 0 -1 0 1 0 2 1 -0 -3 -4 -3 -3 -4 -4 -2 -0 0 0 0 -1 -2 -1 -1 1 -1 1 -1 -1 2 -5 13 -10 -0 3 2 2 0 -1 -1
-1 1 -1 -3 1 2 1 0 -1 -0 2 2 1 2 5 5 2 -1 -2 -2 -1 -2 -2 -1 -2 -3 1 -3 -3 0 2 -3 -1 -0 -1 3 1 1 1 -2 -1 -0 -1 -2 -2
Height
5699 5691 5681 5672 5664 5661 5663 5666 5669 5672 5675 5679 5680 5684 5687 5692 5698 5709 5726 5733 5746 5759 5770 5781 5791 5800 5810 5818 5825 5832 5838 5844 5849 5853 5858 5864 5867 5868 5870 5872 5873 5873 5874 5875 5874
5695 5687 5679 5670 5663 5658 5659 5662 5664 5666 5669 5671 5673 5676 5680 5685 5691 5702 5710 5722 5734 5748 5760 5772 5783 5793 5802 5810 5818 5825 5833 5841 5845 5850 5854 5859 5863 5865 5868 5869 5869 5870 5871 5872 5872
5691 5685 5677 5670 5664 5660 5658 5658 5658 5660 5662 5664 5666 5669 5673 5677 5686 5693 5698 5711 5724 5738 5751 5763 5774 5785 5795 5804 5813 5820 5829 5835 5840 5845 5850 5855 5859 5862 5863 5865 5866 5867 5869 5869 5869
5690 5683 5676 5670 5666 5662 5659 5656 5655 5654 5655 5657 5660 5663 5666 5673 5680 5683 5693 5703 5715 5729 5742 5754 5767 5778 5789 5798 5807 5816 5824 5829 5835 5840 5845 5850 5855 5858 5860 5861 5863 5864 5865 5866 5865
5689 5681 5676 5670 5666 5663 5658 5654 5652 5651 5651 5652 5655 5658 5661 5667 5673 5680 5688 5697 5710 5722 5735 5747 5761 5772 5783 5793 5802 5810 5819 5825 5830 5835 5840 5845 5850 5854 5856 5858 5859 5861 5862 5862 5861
5689 5681 5675 5671 5666 5660 5654 5649 5647 5648 5648 5649 5650 5654 5657 5662 5668 5675 5682 5692 5702 5716 5729 5742 5753 5765 5776 5787 5797 5805 5813 5820 5825 5831 5836 5841 5845 5849 5853 5854 5856 5857 5858 5857 5856
5689 5682 5675 5672 5666 5660 5653 5648 5644 5644 5644 5645 5647 5650 5654 5659 5663 5670 5678 5686 5697 5709 5724 5736 5747 5759 5771 5780 5791 5800 5808 5815 5820 5826 5832 5836 5842 5847 5849 5851 5852 5853 5853 5853 5852
5690 5684 5677 5671 5666 5660 5654 5648 5644 5641 5640 5641 5642 5647 5652 5657 5661 5667 5674 5683 5694 5706 5718 5730 5741 5752 5764 5774 5784 5794 5802 5808 5815 5822 5828 5833 5841 5841 5844 5846 5848 5849 5848 5848 5848
5693 5685 5679 5673 5668 5662 5654 5648 5642 5639 5638 5638 5641 5645 5650 5655 5660 5666 5673 5681 5691 5703 5714 5727 5738 5748 5760 5770 5780 5789 5797 5805 5813 5818 5824 5829 5834 5837 5839 5841 5843 5843 5843 5843 5843
5697 5689 5682 5677 5670 5664 5657 5650 5641 5635 5635 5635 5639 5647 5651 5655 5660 5667 5674 5681 5690 5700 5712 5724 5735 5745 5756 5766 5776 5786 5795 5803 5810 5816 5820 5825 5830 5831 5833 5835 5836 5837 5838 5838 5838
5701 5694 5687 5680 5673 5667 5661 5654 5647 5640 5638 5639 5644 5647 5651 5656 5662 5669 5676 5683 5691 5700 5712 5722 5734 5745 5754 5763 5773 5783 5792 5799 5805 5811 5815 5820 5823 5826 5828 5830 5831 5832 5832 5833 5833
5705 5698 5692 5686 5680 5673 5667 5662 5655 5650 5647 5647 5648 5650 5655 5659 5665 5672 5680 5688 5695 5703 5712 5724 5734 5743 5753 5762 5771 5780 5788 5795 5801 5807 5812 5816 5820 5821 5823 5825 5826 5827 5828 5827 5827
5708 5703 5697 5691 5685 5679 5674 5668 5662 5657 5655 5653 5654 5656 5661 5666 5670 5676 5683 5690 5698 5707 5715 5725 5735 5743 5753 5761 5769 5778 5785 5792 5798 5803 5808 5812 5815 5816 5819 5820 5820 5821 5822 5822 5821
5714 5707 5701 5697 5692 5685 5681 5676 5672 5667 5663 5663 5665 5666 5668 5671 5676 5682 5687 5695 5702 5710 5717 5726 5734 5744 5752 5760 5768 5775 5782 5789 5795 5800 5804 5807 5811 5812 5814 5815 5816 5816 5816 5816 5815
5721 5714 5707 5701 5698 5692 5688 5683 5679 5676 5674 5672 5672 5674 5675 5680 5683 5687 5693 5700 5707 5714 5722 5729 5735 5744 5752 5759 5766 5773 5780 5786 5792 5796 5799 5803 5805 5809 5809 5810 5810 5809 5809 5809 5808
5728 5722 5714 5708 5703 5698 5694 5690 5688 5685 5682 5681 5680 5681 5683 5685 5690 5693 5698 5705 5710 5717 5724 5731 5737 5744 5751 5758 5765 5771 5778 5784 5788 5791 5794 5798 5800 5805 5804 5804 5804 5803 5803 5803 5801
5733 5729 5722 5715 5710 5706 5701 5698 5696 5692 5692 5691 5690 5690 5690 5693 5696 5700 5704 5709 5716 5722 5727 5733 5739 5746 5753 5759 5765 5771 5777 5781 5785 5787 5791 5794 5794 5799 5798 5798 5798 5797 5797 5796 5794
5738 5734 5730 5724 5717 5713 5710 5708 5703 5699 5698 5698 5699 5699 5700 5701 5703 5706 5710 5715 5720 5725 5730 5736 5743 5747 5753 5759 5765 5770 5774 5778 5782 5784 5787 5788 5789 5791 5792 5792 5791 5790 5789 5788 5786
5743 5738 5735 5731 5726 5721 5718 5717 5713 5709 5707 5707 5706 5707 5709 5710 5711 5713 5716 5720 5724 5729 5735 5739 5744 5749 5754 5759 5765 5768 5772 5776 5778 5780 5781 5782 5784 5785 5785 5785 5784 5783 5782 5781 5779
5747 5742 5739 5736 5733 5729 5725 5722 5721 5719 5716 5715 5715 5714 5715 5716 5718 5720 5723 5726 5729 5733 5737 5742 5746 5750 5755 5759 5763 5766 5770 5772 5774 5775 5775 5777 5778 5778 5779 5778 5778 5777 5775 5773 5771
5751 5748 5744 5740 5737 5735 5732 5729 5726 5724 5723 5722 5722 5722 5722 5722 5725 5726 5729 5731 5733 5736 5739 5743 5747 5752 5755 5758 5761 5764 5766 5767 5768 5769 5768 5769 5772 5773 5774 5772 5770 5768 5767 5764 5761
5753 5751 5748 5745 5742 5738 5736 5735 5732 5730 5728 5728 5727 5727 5727 5728 5728 5730 5733 5735 5738 5740 5743 5745 5748 5750 5754 5756 5758 5760 5762 5763 5763 5766 5765 5765 5768 5768 5766 5763 5761 5759 5756 5753 5751
5754 5752 5750 5748 5745 5742 5739 5737 5736 5735 5734 5733 5732 5731 5730 5731 5732 5733 5735 5737 5739 5742 5745 5747 5750 5752 5754 5757 5758 5759 5760 5760 5761 5760 5761 5761 5761 5759 5756 5753 5751 5749 5746 5743 5741
5755 5753 5750 5748 5747 5745 5742 5739 5737 5736 5736 5736 5736 5736 5735 5734 5734 5735 5737 5738 5739 5741 5742 5745 5747 5749 5752 5753 5754 5755 5755 5755 5754 5753 5754 5752 5751 5748 5745 5743 5741 5738 5736 5733 5729
5754 5752 5750 5748 5746 5745 5744 5742 5740 5738 5736 5735 5735 5736 5737 5737 5737 5737 5738 5738 5739 5740 5742 5743 5745 5746 5746 5747 5748 5748 5748 5747 5747 5746 5743 5746 5742 5740 5736 5732 5730 5727 5724 5720 5717
5752 5750 5748 5746 5744 5743 5743 5742 5740 5739 5738 5737 5735 5734 5734 5735 5736 5736 5737 5738 5739 5740 5740 5741 5742 5741 5741 5742 5742 5742 5741 5740 5740 5738 5736 5733 5735 5729 5726 5723 5719 5715 5711 5707 5703
5747 5746 5746 5744 5742 5740 5739 5739 5739 5737 5737 5736 5735 5735 5734 5734 5733 5733 5734 5734 5735 5735 5736 5736 5736 5736 5737 5735 5735 5738 5737 5733 5733 5731 5728 5725 5722 5719 5715 5711 5707 5703 5700 5695 5689